Current Version              Previous Version:    01  02  03  04  05  06  07  08  09  10  11  12  13  14  15  16  17  18  19  20  21  22  23  24  25  26  27  28  29  30  
   31  32  33  34  35  36  37  38  39  40  41  42  43  44  45  46  47  48  49  50  51  52  53  54  55  56  57  58  59  60  

[Printable]
999
ASUS44 KFWD 191110
RWRTX
NORTH TEXAS HOURLY WEATHER ROUNDUP
NATIONAL WEATHER SERVICE FORT WORTH TX
600 AM CDT SAT APR 19 2014

NOTE: "FAIR" INDICATES FEW OR NO CLOUDS BELOW 12,000 FEET WITH NO
SIGNIFICANT WEATHER AND/OR OBSTRUCTIONS TO VISIBILITY.

TXZ118-119-191200-
DALLAS/FORT WORTH METROPLEX

CITY           SKY/WX    TMP DP  RH WIND       PRES   REMARKS
DFW AIRPORT    MOCLDY    55  48  77 SE3       30.13R
DALLAS LOVE    MOCLDY    58  49  72 SE8       30.13R
FTW MEACHAM    PTCLDY    57  48  72 CALM      30.12S
DAL-EXECUTIVE  CLEAR     52  48  86 SE3       30.13R
FTW-ALLIANCE   MOCLDY    50  46  86 CALM      30.13R
FTW-NAS-JRB    PTCLDY    56  46  69 CALM      30.17R
FTW-SPINKS     CLEAR     48  44  87 CALM      30.15R
ARLINGTON      CLEAR     47  45  93 CALM      30.13S
GRAND PRAIRIE  PTCLDY    55  46  71 CALM      30.15S
LANCASTER      PTCLDY    48  45  88 CALM      30.15R
$$

TXZ091>094-102>105-117-120-121-131>134-191200-
NORTH CENTRAL TEXAS

CITY           SKY/WX    TMP DP  RH WIND       PRES   REMARKS
SHRMAN/DENISON CLEAR     57  49  74 SE9       30.15R
GAINESVILLE    CLEAR     49  44  84 CALM      30.15S
BOWIE          MOCLDY    51  47  87 CALM      30.14R
BRIDGEPORT     PTCLDY    46  46 100 CALM      30.15R
DECATUR        PTCLDY    54  46  74 SE6       30.13S
DENTON         PTCLDY    48  47  96 CALM      30.13S
MCKINNEY       PTCLDY    50  45  83 CALM      30.14S
GREENVILLE     PTCLDY    50  46  87 CALM      30.15S
ROCKWALL       PTCLDY    56  51  83 E6        30.13S
TERRELL        PTCLDY    50  49  96 CALM      30.15S
WAXAHACHIE     CLEAR     53  47  82 E3        30.15S
CLEBURNE       PTCLDY    54  50  87 CALM      30.15R
GRANBURY       PTCLDY    50  48  92 CALM      30.14R
$$

TXZ083>090-098>101-113>116-127>130-139>142-154-155-191200-
WESTERN NORTH TEXAS

CITY           SKY/WX    TMP DP  RH WIND       PRES   REMARKS
WICHITA FALLS  MOCLDY    52  48  86 S8        30.12R
WF-KICKAPOO    MOCLDY    54  49  83 S5        30.13S
VERNON         PTCLDY    53  49  87 CALM      30.11S
ABILENE        CLEAR     57  49  74 SE13      30.10S
BRECKENRIDGE   PTCLDY    58  49  74 SE9       30.11S
GRAHAM         PTCLDY    54  49  83 SE5       30.11F
MINERAL WELLS  MOCLDY    52  49  89 CALM      30.12R
STEPHENVILLE   PTCLDY    53  49  87 CALM      30.15S
COMANCHE       PTCLDY    55  50  83 SE5       30.13S
BROWNWOOD      CLOUDY    50  48  93 CALM      30.12S
COLEMAN        CLEAR     54  49  84 CALM      30.12S
BRADY          CLEAR     54  52  94 SE5       30.11S
$$

TXZ143>147-156>162-174-175-191200-
CENTRAL TEXAS

CITY           SKY/WX    TMP DP  RH WIND       PRES   REMARKS
WACO           CLEAR     47  46  97 CALM      30.13R
WACO-MCGREGOR  PTCLDY    46  43  87 CALM      30.15R
HILLSBORO      PTCLDY    59  49  69 SE8       30.13S
CORSICANA      CLEAR     57  51  80 SE7       30.15S
MEXIA          CLEAR     55  51  87 CALM      30.13S
HEARNE         CLEAR     55  52  90 CALM      30.13S
CAMERON        PTCLDY    53  51  92 CALM      30.13R
TEMPLE         PTCLDY    48  43  81 N3        30.16R
KILLEEN        PTCLDY    57  52  82 CALM      30.12R
KILLEEN-SKYLRK PTCLDY    52  46  82 CALM      30.11R
GATESVILLE     PTCLDY    50  48  93 CALM      30.15R
HAMILTON       PTCLDY    54  50  85 S5        30.14R
LAMPASAS       PTCLDY    50  49  95 W3        30.12R
$$

TXZ095>097-106>112-122>126-135>138-148>153-164>167-191200-
EAST TEXAS

CITY           SKY/WX    TMP DP  RH WIND       PRES   REMARKS
PARIS          PTCLDY    50  45  81 E8        30.17R
SULPHUR SPRNGS CLEAR     51  49  93 E3        30.18R
CLARKSVILLE    CLEAR     51  49  90 CALM      30.17R
MOUNT PLEASANT CLEAR     47  47  98 NE3       30.18R
GILMER         CLEAR     50  50 100 CALM      30.18R FOG
MINEOLA        CLEAR     48  48 100 CALM      30.16S FOG
TYLER          PTCLDY    53  49  86 CALM      30.15R
LONGVIEW       PTCLDY    51  48  89 CALM      30.15R
MARSHALL       CLEAR     51  48  92 CALM      30.17S
ATHENS         CLEAR     46  46 100 CALM      30.14S
PALESTINE      PTCLDY    58  52  81 CALM      30.16S
JACKSONVILLE   PTCLDY    55  51  85 CALM      30.16S
HENDERSON      PTCLDY    48  47  94 CALM      30.17R
NACOGDOCHES    PTCLDY    48  45  87 CALM      30.15S
LUFKIN         CLEAR     54  50  86 CALM      30.14R
$$

SUPPLEMENTAL OBSERVATIONS (CENTRAL)

CITY           SKY/WX    TMP DP  RH WIND       PRES   REMARKS
CADDO GRASSLND   N/A     48  45  87 CALM        N/A
PAT MAYSE LAKE   N/A     50  46  87 N1          N/A
GREENVILLE       N/A     52  46  82 CALM        N/A
CEDAR HILL       N/A     57  48  72 SE7         N/A
PALESTINE        N/A     48  46  93 CALM        N/A
MCGREGOR         N/A     48  43  81 SW1         N/A
TEMPLE           N/A     55  50  82 NE2         N/A
$$

SUPPLEMENTAL OBSERVATIONS (WEST)

CITY           SKY/WX    TMP DP  RH WIND       PRES   REMARKS
MILLERS CREEK    N/A     55  46  71 S9          N/A
POSSUM KINGDOM   N/A     55  50  82 E3          N/A
LBJ GRASSLAND    N/A     55  46  71 SE6         N/A
GRANBURY         N/A     48  46  93 CALM        N/A
HAMBY            N/A     55  48  76 SE8         N/A
IVIE RESERVOIR   N/A     54  48  82 SE3         N/A
COLORADO BEND    N/A     55  50  82 SW3         N/A
$$

SUPPLEMENTAL OBSERVATIONS (EAST)

CITY           SKY/WX    TMP DP  RH WIND       PRES   REMARKS
TEXARKANA        N/A     45  43  93 CALM        N/A
LINDEN           N/A     48  45  87 CALM        N/A
N SABINE NF      N/A     46  45  93 MISG        N/A
$$

SUPPLEMENTAL OBSERVATIONS ARE A COLLECTION OF AUTOMATED INSTRUMENTS
THAT ARE MAINTAINED BY A VARIETY OF FEDERAL AND STATE AGENCIES.
CERTAIN ELEMENTS...SUCH AS HUMIDITY VALUES AND SUSTAINED WIND
SPEEDS...MAY BE APPROXIMATED.